Tracking 25370 objects as of 25-Jan-2022
HD Live streaming from Space Station
objects crossing your sky now

STARLINK-2374

Track STARLINK-2374 now!
10-day predictions
STARLINK-2374 is classified as:


NORAD ID: 47913
Int'l Code: 2021-021BF
Perigee: 552.9 km
Apogee: 555.8 km
Inclination: 53.1 °
Period: 95.6 minutes
Semi major axis: 6925 km
RCS: Unknown
Launch date: March 14, 2021
Source: United States (US)
Launch site: AIR FORCE EASTERN TEST RANGE (AFETR)
aabbcc
Your satellite tracking list
Your tracking list is empty




NASA's NSSDC Master Catalog

Two Line Element Set (TLE):
1 47913U 21021BF  22025.16303839  .00001497  00000-0  11941-3 0  9994
2 47913  53.0544 195.7110 0002081  82.2871 277.8354 15.06394934 48800
Source of the keplerian elements: AFSPC